GW1572 Weather Reports


time (UTC)temp
C
wind
direction
speed
KPH
gust
KPH
rain 1hr
cm
rain 24hr
cm
rain mn
cm
humidity
%
barometer
mb
20260509072738 12 301 0.0 0.0 0.00 0.00 0.00 81 1001.6
20260509071519 12 321 0.0 0.0 0.00 0.00 0.00 81 1002.0
20260509070324 12 265 0.0 0.0 0.00 0.00 0.00 81 1002.3
20260509065751 12 266 0.0 0.0 0.00 0.00 0.00 81 1002.0
20260509064519 12 266 0.0 0.0 0.00 0.00 0.00 81 1002.0
20260509063913 12 266 0.0 0.0 0.00 0.00 0.00 81 1002.0
20260509063311 12 266 0.0 0.0 0.00 0.00 0.00 80 1002.0
20260509062719 12 193 0.0 0.0 0.00 0.00 0.00 80 1002.0
20260509062128 12 213 0.0 0.0 0.00 0.00 0.00 80 1002.0
20260509060912 12 233 0.0 0.0 0.00 0.00 0.00 79 1002.0
20260509060335 12 270 0.0 0.0 0.00 0.00 0.00 78 1002.0
20260509054513 12 269 0.0 0.0 0.00 0.00 0.00 78 1002.3
20260509053935 12 269 0.0 0.0 0.00 0.00 0.00 77 1002.3
20260509053346 12 266 0.0 0.0 0.00 0.00 0.00 78 1002.3
20260509052735 12 264 0.0 0.0 0.00 0.00 0.00 77 1002.3
20260509052136 13 263 0.0 0.0 0.00 0.00 0.00 76 1002.3
20260509051536 13 266 0.0 0.0 0.00 0.00 0.00 75 1002.3
20260509050939 13 213 0.0 0.0 0.00 0.00 0.00 75 1002.3
20260509045724 13 233 0.0 0.0 0.00 0.00 0.00 74 1002.0
20260509045135 13 233 0.0 0.0 0.00 0.00 0.00 74 1002.0
20260509044542 13 301 0.0 0.0 0.00 0.00 0.00 74 1002.3
20260509043947 13 264 0.0 0.0 0.00 0.00 0.00 74 1002.0
20260509043336 13 270 0.0 0.0 0.00 0.00 0.00 74 1002.3
20260509042740 13 271 0.0 0.0 0.00 0.00 0.00 74 1002.3
20260509042146 13 272 0.0 0.0 0.00 0.00 0.00 73 1002.3
20260509041539 13 272 0.0 0.0 0.00 0.00 0.00 72 1002.7
20260509040310 13 272 0.0 0.0 0.00 0.00 0.00 71 1002.7
20260509035750 13 268 0.0 0.0 0.00 0.00 0.00 73 1002.7
20260509035153 13 341 0.0 0.0 0.00 0.00 0.00 72 1002.7
20260509034542 13 268 0.0 0.0 0.00 0.00 0.00 71 1002.7
20260509033926 13 270 0.0 0.0 0.00 0.00 0.00 70 1002.7
20260509033318 14 276 0.0 0.0 0.00 0.00 0.00 71 1002.7
20260509031510 14 265 0.0 0.0 0.00 0.00 0.00 73 1003.0
20260509030315 14 273 0.0 0.0 0.00 0.00 0.00 72 1003.0
20260509025711 14 279 0.0 0.0 0.00 0.00 0.00 72 1003.0
20260509025140 14 275 0.0 0.0 0.00 0.00 0.00 74 1003.3
20260509024550 14 269 0.0 0.0 0.00 0.00 0.00 72 1002.7
20260509023918 15 279 0.0 0.0 0.00 0.00 0.00 71 1003.0
20260509023313 15 287 0.0 0.0 0.00 0.00 0.00 65 1003.0
20260509022717 15 273 0.0 0.0 0.00 0.00 0.00 65 1003.0
20260509021510 15 233 0.0 0.0 0.00 0.00 0.00 64 1003.0
20260509020909 15 271 0.0 0.0 0.00 0.00 0.00 64 1003.0
20260509020312 15 270 0.0 0.0 0.00 0.00 0.00 65 1003.0
20260509015739 15 274 0.0 0.0 0.00 0.00 0.00 66 1003.0
20260509015127 15 277 0.0 0.0 0.00 0.00 0.00 66 1003.0
20260509014516 15 341 0.0 0.0 0.00 0.00 0.00 64 1003.0
20260509013934 15 263 0.0 0.0 0.00 0.00 0.00 65 1003.0
20260509013344 15 275 0.0 0.0 0.00 0.00 0.00 64 1003.0
20260509012746 15 287 0.0 0.0 0.00 0.00 0.00 67 1002.7
20260509012113 15 287 0.0 0.0 0.00 0.00 0.00 64 1003.0
20260509010930 16 252 0.0 0.0 0.00 0.00 0.00 62 1002.7
20260509010308 16 260 0.0 0.0 0.00 0.00 0.00 62 1002.7
20260509005746 16 261 0.0 0.0 0.00 0.00 0.00 61 1003.0
20260509005138 16 273 0.0 0.0 0.00 0.00 0.00 64 1002.7
20260509004522 16 254 0.0 0.0 0.00 0.00 0.00 61 1002.7
20260509003315 16 271 0.0 0.0 0.00 0.00 0.00 61 1002.7
20260509002713 16 271 0.0 0.0 0.00 0.00 0.00 60 1003.0
20260509002119 16 253 0.0 0.0 0.00 0.00 0.00 59 1003.0
20260509001537 17 261 0.0 0.0 0.00 0.00 0.00 58 1003.0
20260509000941 17 254 0.0 0.0 0.00 0.00 0.00 60 1003.0
20260509000311 18 258 0.0 0.0 0.00 0.00 0.00 60 1003.0
20260508235713 18 304 0.0 0.0 0.00 0.00 0.00 57 1002.7
20260508235117 20 274 0.0 0.0 0.00 0.00 0.00 54 1002.7
20260508234534 21 255 0.0 0.0 0.00 0.00 0.00 50 1002.7
20260508233914 20 282 0.0 0.0 0.00 0.00 0.00 50 1003.0
20260508233309 20 337 0.0 0.0 0.00 0.00 0.00 53 1002.7
20260508232725 20 266 0.0 1.6 0.00 0.00 0.00 42 1002.7
20260508232135 21 308 3.2 3.2 0.00 0.00 0.00 39 1002.7
20260508231513 22 232 1.6 1.6 0.00 0.00 0.00 37 1002.7
20260508230947 22 349 3.2 3.2 0.00 0.00 0.00 40 1002.7
20260508230323 22 344 0.0 1.6 0.00 0.00 0.00 43 1002.7
20260508225749 21 308 3.2 3.2 0.00 0.00 0.00 40 1002.7
20260508225148 20 14 3.2 4.8 0.00 0.00 0.00 41 1003.0
20260508224518 21 23 4.8 6.4 0.00 0.00 0.00 40 1002.7
20260508223947 21 16 6.4 11.3 0.00 0.00 0.00 38 1003.0
20260508223318 22 343 6.4 9.7 0.00 0.00 0.00 37 1002.7
20260508222127 22 346 4.8 6.4 0.00 0.00 0.00 37 1002.7
20260508221541 22 332 4.8 4.8 0.00 0.00 0.00 38 1002.7
20260508220935 22 311 6.4 6.4 0.00 0.00 0.00 38 1003.0
20260508220310 22 2 8.0 12.9 0.00 0.00 0.00 40 1002.7
20260508215732 21 308 3.2 3.2 0.00 0.00 0.00 39 1002.7
20260508214546 22 263 4.8 9.7 0.00 0.00 0.00 38 1002.7
20260508213913 21 302 4.8 6.4 0.00 0.00 0.00 42 1003.0
20260508212116 22 320 4.8 6.4 0.00 0.00 0.00 40 1003.3
20260508211515 22 303 1.6 3.2 0.00 0.00 0.00 38 1003.0
20260508210918 23 330 4.8 6.4 0.00 0.00 0.00 41 1003.0
20260508210320 22 344 3.2 4.8 0.00 0.00 0.00 40 1002.7
20260508205739 21 337 8.0 11.3 0.00 0.00 0.00 41 1003.0
20260508205124 22 35 4.8 6.4 0.00 0.00 0.00 40 1003.0
20260508204551 22 1 4.8 4.8 0.00 0.00 0.00 39 1003.3
20260508203919 22 348 9.7 12.9 0.00 0.00 0.00 38 1003.3
20260508203320 22 16 4.8 4.8 0.00 0.00 0.00 39 1003.7
20260508202734 22 340 4.8 9.7 0.00 0.00 0.00 40 1003.3
20260508202114 22 314 9.7 16.1 0.00 0.00 0.00 39 1003.3
20260508201518 22 338 4.8 4.8 0.00 0.00 0.00 40 1003.3
20260508200949 23 354 4.8 6.4 0.00 0.00 0.00 43 1003.3
20260508200343 22 355 6.4 9.7 0.00 0.00 0.00 38 1003.3
20260508195740 22 6 6.4 11.3 0.00 0.00 0.00 44 1003.3
20260508195133 22 23 6.4 9.7 0.00 0.00 0.00 40 1003.7
20260508194552 22 299 3.2 4.8 0.00 0.00 0.00 39 1004.0
20260508193931 22 5 9.7 11.3 0.00 0.00 0.00 39 1004.4
20260508193322 21 294 4.8 4.8 0.00 0.00 0.00 43 1004.4
20260508192726 22 359 6.4 6.4 0.00 0.00 0.00 39 1004.4
20260508192146 22 15 6.4 6.4 0.00 0.00 0.00 41 1004.4
20260508191549 22 303 3.2 3.2 0.00 0.00 0.00 44 1004.4
20260508190936 22 309 4.8 4.8 0.00 0.00 0.00 47 1004.7
20260508190343 21 338 3.2 4.8 0.00 0.00 0.00 40 1004.7
20260508185114 22 270 3.2 6.4 0.00 0.00 0.00 42 1005.0
20260508184545 22 35 9.7 11.3 0.00 0.00 0.00 41 1005.0
20260508183944 21 323 3.2 4.8 0.00 0.00 0.00 43 1005.4
20260508183338 21 196 6.4 11.3 0.00 0.00 0.00 45 1005.4
20260508182736 21 315 6.4 11.3 0.00 0.00 0.00 41 1005.7
20260508181532 21 27 6.4 9.7 0.00 0.00 0.00 43 1005.7
20260508180921 21 358 8.0 12.9 0.00 0.00 0.00 42 1005.4
20260508180349 21 235 1.6 3.2 0.00 0.00 0.00 43 1005.4
20260508175740 21 329 4.8 4.8 0.00 0.00 0.00 43 1005.7
20260508175143 20 352 4.8 4.8 0.00 0.00 0.00 43 1006.0
20260508174511 21 10 9.7 12.9 0.00 0.00 0.00 43 1006.0
20260508173923 21 2 4.8 4.8 0.00 0.00 0.00 42 1006.0
20260508173320 20 297 9.7 11.3 0.00 0.00 0.00 51 1006.0
20260508172740 20 289 3.2 3.2 0.00 0.00 0.00 45 1006.0
20260508172148 20 356 6.4 11.3 0.00 0.00 0.00 46 1006.4
20260508170941 20 356 3.2 3.2 0.00 0.00 0.00 44 1006.4
20260508170314 20 249 3.2 3.2 0.00 0.00 0.00 43 1006.4
20260508165709 20 354 4.8 6.4 0.00 0.00 0.00 50 1006.7
20260508165120 20 308 3.2 4.8 0.00 0.00 0.00 47 1007.1
20260508164533 20 356 4.8 6.4 0.00 0.00 0.00 45 1006.7
20260508163331 19 236 9.7 12.9 0.00 0.00 0.00 45 1007.1
20260508162723 19 283 9.7 12.9 0.00 0.00 0.00 48 1007.4
20260508162130 19 305 9.7 11.3 0.00 0.00 0.00 50 1007.7
20260508161515 19 342 6.4 9.7 0.00 0.00 0.00 43 1007.7
20260508160931 19 30 9.7 12.9 0.00 0.00 0.00 43 1007.4
20260508160338 19 318 6.4 6.4 0.00 0.00 0.00 45 1007.7
20260508155110 18 337 3.2 3.2 0.00 0.00 0.00 49 1007.7
20260508154521 18 341 1.6 3.2 0.00 0.00 0.00 48 1007.7
20260508153937 17 289 1.6 1.6 0.00 0.00 0.00 47 1007.7
20260508153342 17 293 0.0 1.6 0.00 0.00 0.00 50 1008.1
20260508152746 17 278 3.2 3.2 0.00 0.00 0.00 53 1007.7
20260508151536 17 321 3.2 3.2 0.00 0.00 0.00 52 1008.1
20260508150945 17 327 4.8 4.8 0.00 0.00 0.00 52 1007.7
20260508145746 16 336 0.0 1.6 0.00 0.00 0.00 53 1008.1
20260508145148 16 312 3.2 4.8 0.00 0.00 0.00 53 1008.4
20260508143942 16 282 4.8 6.4 0.00 0.00 0.00 53 1008.4
20260508142727 15 320 6.4 9.7 0.00 0.00 0.00 59 1008.1
20260508142149 14 286 0.0 0.0 0.00 0.00 0.00 64 1008.4
20260508141518 13 313 1.6 1.6 0.00 0.00 0.00 70 1008.4
20260508140936 12 354 0.0 1.6 0.00 0.00 0.00 75 1008.1
20260508135748 12 315 0.0 0.0 0.00 0.00 0.00 74 1008.4
20260508135146 12 323 0.0 0.0 0.00 0.00 0.00 71 1008.4
20260508134522 12 8 3.2 3.2 0.00 0.00 0.00 66 1008.4
20260508133916 11 331 1.6 1.6 0.00 0.00 0.00 73 1008.4
20260508133312 11 356 3.2 3.2 0.00 0.00 0.00 78 1008.4
20260508132726 10 286 0.0 0.0 0.00 0.00 0.00 79 1008.4
20260508132122 10 6 1.6 1.6 0.00 0.00 0.00 81 1008.8
20260508130308 7 341 0.0 1.6 0.00 0.00 0.00 96 1008.4
20260508125126 6 284 0.0 0.0 0.00 0.00 0.00 99 1008.8
20260508123936 6 285 0.0 0.0 0.00 0.00 0.00 99 1008.8
20260508123350 5 285 0.0 0.0 0.00 0.00 0.00 99 1008.8
20260508122731 5 285 0.0 0.0 0.00 0.00 0.00 99 1008.8
20260508122120 5 275 0.0 0.0 0.00 0.00 0.00 99 1008.8
20260508121538 4 280 0.0 0.0 0.00 0.00 0.00 99 1008.8
20260508120920 4 283 0.0 0.0 0.00 0.00 0.00 99 1008.4
20260508115710 3 283 0.0 0.0 0.00 0.00 0.00 99 1008.4
20260508115148 3 284 0.0 0.0 0.00 0.00 0.00 99 1008.1
20260508114519 3 297 0.0 0.0 0.00 0.00 0.00 99 1008.4
20260508113930 3 275 0.0 0.0 0.00 0.00 0.00 99 1008.4
20260508113316 3 276 0.0 0.0 0.00 0.00 0.00 99 1008.4
20260508112719 3 285 0.0 0.0 0.00 0.00 0.00 99 1008.4
20260508112143 3 276 0.0 0.0 0.00 0.00 0.00 99 1008.4
20260508111542 2 271 0.0 0.0 0.00 0.00 0.00 99 1008.4
20260508110922 2 272 0.0 0.0 0.00 0.00 0.00 99 1008.4
20260508110326 2 272 0.0 0.0 0.00 0.00 0.00 99 1008.1
20260508105142 2 280 0.0 0.0 0.00 0.00 0.00 99 1008.1
20260508103936 2 3 0.0 0.0 0.00 0.00 0.00 99 1008.1
20260508103338 2 276 0.0 0.0 0.00 0.00 0.00 99 1008.1
20260508102715 2 275 0.0 0.0 0.00 0.00 0.00 99 1008.1
20260508102115 2 277 0.0 0.0 0.00 0.00 0.00 99 1008.1
20260508101512 2 277 0.0 0.0 0.00 0.00 0.00 99 1007.7
20260508100938 2 270 0.0 0.0 0.00 0.00 0.00 99 1007.7
20260508100331 2 261 0.0 0.0 0.00 0.00 0.00 99 1007.7
20260508095748 2 261 0.0 0.0 0.00 0.00 0.00 99 1007.7
20260508095130 2 260 0.0 0.0 0.00 0.00 0.00 99 1007.7
20260508094522 2 270 0.0 0.0 0.00 0.00 0.00 99 1007.7
20260508093943 2 262 0.0 0.0 0.00 0.00 0.00 99 1007.4
20260508092722 3 265 0.0 0.0 0.00 0.00 0.00 99 1007.7
20260508092142 3 261 0.0 0.0 0.00 0.00 0.00 98 1007.7
20260508091528 3 273 0.0 0.0 0.00 0.00 0.00 98 1007.7
20260508090932 3 272 0.0 0.0 0.00 0.00 0.00 98 1007.4
20260508085139 3 273 0.0 0.0 0.00 0.00 0.00 98 1007.7
20260508084547 3 288 0.0 0.0 0.00 0.00 0.00 98 1007.4
20260508083912 3 280 0.0 0.0 0.00 0.00 0.00 98 1007.7
20260508083313 3 258 0.0 0.0 0.00 0.00 0.00 98 1007.4
20260508082735 3 255 0.0 0.0 0.00 0.00 0.00 98 1007.4
20260508082150 3 251 0.0 0.0 0.00 0.00 0.00 98 1007.4
20260508081537 3 236 0.0 0.0 0.00 0.00 0.00 98 1007.4
20260508080328 3 278 0.0 0.0 0.00 0.00 0.00 98 1007.4
20260508075731 3 272 0.0 0.0 0.00 0.00 0.00 97 1007.4
20260508075120 3 274 0.0 0.0 0.00 0.00 0.00 97 1007.1
20260508074529 3 292 0.0 0.0 0.00 0.00 0.00 97 1007.4
20260508073327 3 256 0.0 0.0 0.00 0.00 0.00 97 1007.1